When you browse on this site, cookies collect data to enhance your experience and personalize the content and advertising you see.
Visit our Privacy Policy to learn more. By continuing to use the site, you agree to this use of cookies and data.
  • In Austria
  • List of Countries
  • For 7 days
  • Water Temperature
  • Weather Map
  • News
  • Weather Widgets
  • user-avatar
    Login

    Hourly Weather Puerto Tejada

    Today, 23 November, Saturday

    Time Temperature Precipitation Wind Pressure Humidity
    00:00 +20°C° 0.3 mm 0 mps 678 mmHg 91%
    01:00 +19°C° 0.3 mm 0 mps 678 mmHg 92%
    02:00 +19°C° 0.3 mm 0 mps 677 mmHg 92%
    03:00 +19°C° 0.3 mm 0 mps 677 mmHg 92%
    04:00 +19°C° 0.3 mm 0 mps 677 mmHg 92%
    05:00 +19°C° 0.4 mm 0 mps 677 mmHg 92%
    06:00 +19°C° 0.4 mm 0 mps 678 mmHg 91%
    07:00 +20°C° 0.4 mm 0 mps 678 mmHg 91%
    08:00 +21°C° 0.2 mm 0 mps 679 mmHg 87%
    09:00 +22°C° 0.2 mm 0 mps 679 mmHg 83%
    10:00 +26°C° 0.2 mm 1 mps 680 mmHg 79%
    11:00 +27°C° 0.3 mm 1 mps 679 mmHg 75%
    12:00 +27°C° 0.3 mm 1 mps 679 mmHg 72%
    13:00 +28°C° 0.3 mm 1 mps 678 mmHg 69%
    14:00 +26°C° 0.9 mm 0 mps 677 mmHg 73%
    15:00 +25°C° 0.9 mm 0 mps 677 mmHg 78%
    16:00 +24°C° 0.9 mm 0 mps 676 mmHg 83%
    17:00 +23°C° 0.7 mm 0 mps 677 mmHg 86%
    18:00 +22°C° 0.7 mm 0 mps 677 mmHg 89%
    19:00 +21°C° 0.7 mm 0 mps 677 mmHg 92%
    20:00 +20°C° 0.2 mm 0 mps 678 mmHg 92%
    21:00 +20°C° 0.2 mm 0 mps 678 mmHg 92%
    22:00 +20°C° 0.2 mm 0 mps 679 mmHg 92%
    23:00 +20°C° 0.1 mm 0 mps 678 mmHg 92%

    Tomorrow, 24 November, Sunday

    Time Temperature Precipitation Wind Pressure Humidity
    00:00 +20°C° 0.1 mm 0 mps 678 mmHg 93%
    01:00 +19°C° 0.1 mm 0 mps 678 mmHg 93%
    02:00 +19°C° 0.1 mm 0 mps 677 mmHg 93%
    03:00 +19°C° 0.1 mm 0 mps 677 mmHg 93%
    04:00 +19°C° 0.1 mm 0 mps 677 mmHg 93%
    05:00 +19°C° 0 mm 0 mps 677 mmHg 92%
    06:00 +20°C° 0 mm 0 mps 678 mmHg 91%
    07:00 +20°C° 0 mm 0 mps 678 mmHg 90%
    08:00 +22°C° 0.1 mm 0 mps 679 mmHg 85%
    09:00 +25°C° 0.1 mm 1 mps 679 mmHg 80%
    10:00 +27°C° 0.1 mm 1 mps 680 mmHg 74%
    11:00 +28°C° 0.3 mm 1 mps 679 mmHg 72%
    12:00 +28°C° 0.3 mm 1 mps 678 mmHg 69%
    13:00 +29°C° 0.3 mm 1 mps 677 mmHg 66%
    14:00 +28°C° 0.7 mm 1 mps 677 mmHg 70%
    15:00 +28°C° 0.7 mm 1 mps 677 mmHg 75%
    16:00 +27°C° 0.7 mm 1 mps 676 mmHg 80%
    17:00 +26°C° 0.8 mm 1 mps 676 mmHg 84%
    18:00 +24°C° 0.8 mm 1 mps 676 mmHg 88%
    19:00 +21°C° 0.8 mm 0 mps 677 mmHg 92%
    20:00 +21°C° 0.2 mm 0 mps 677 mmHg 92%
    21:00 +20°C° 0.2 mm 0 mps 678 mmHg 92%
    22:00 +20°C° 0.2 mm 0 mps 678 mmHg 92%
    23:00 +20°C° 0 mm 0 mps 678 mmHg 92%

    Day after tomorrow, 25 November, Monday

    Time Temperature Precipitation Wind Pressure Humidity
    00:00 +20°C° 0 mm 0 mps 677 mmHg 92%
    01:00 +19°C° 0 mm 0 mps 677 mmHg 92%
    02:00 +19°C° 0 mm 0 mps 677 mmHg 92%
    03:00 +19°C° 0 mm 0 mps 676 mmHg 92%
    04:00 +19°C° 0 mm 0 mps 676 mmHg 92%
    05:00 +19°C° 0 mm 0 mps 676 mmHg 91%
    06:00 +20°C° 0 mm 0 mps 677 mmHg 90%
    07:00 +20°C° 0 mm 0 mps 677 mmHg 89%
    08:00 +22°C° 0 mm 0 mps 677 mmHg 83%
    09:00 +26°C° 0 mm 1 mps 678 mmHg 77%
    10:00 +28°C° 0 mm 1 mps 678 mmHg 71%
    11:00 +29°C° 0.2 mm 1 mps 678 mmHg 68%
    12:00 +29°C° 0.2 mm 1 mps 677 mmHg 65%
    13:00 +30°C° 0.2 mm 1 mps 676 mmHg 62%
    14:00 +30°C° 0.5 mm 1 mps 676 mmHg 65%
    15:00 +29°C° 0.5 mm 1 mps 675 mmHg 68%
    16:00 +28°C° 0.5 mm 1 mps 675 mmHg 71%
    17:00 +27°C° 1 mm 1 mps 675 mmHg 78%
    18:00 +25°C° 1 mm 1 mps 676 mmHg 85%
    19:00 +23°C° 1 mm 1 mps 676 mmHg 91%
    20:00 +23°C° 0.4 mm 1 mps 676 mmHg 92%
    21:00 +21°C° 0.4 mm 0 mps 677 mmHg 92%
    22:00 +20°C° 0.4 mm 0 mps 677 mmHg 92%
    23:00 +20°C° 0.2 mm 0 mps 677 mmHg 92%

    26 November, Tuesday

    Time Temperature Precipitation Wind Pressure Humidity
    00:00 +20°C° 0.2 mm 0 mps 676 mmHg 92%
    01:00 +20°C° 0.2 mm 0 mps 676 mmHg 92%
    02:00 +19°C° 0.2 mm 0 mps 676 mmHg 93%
    03:00 +19°C° 0.2 mm 0 mps 676 mmHg 93%
    04:00 +19°C° 0.2 mm 0 mps 676 mmHg 93%
    05:00 +20°C° 0 mm 0 mps 676 mmHg 93%
    06:00 +20°C° 0 mm 0 mps 677 mmHg 92%
    07:00 +20°C° 0 mm 0 mps 677 mmHg 91%
    08:00 +22°C° 0 mm 0 mps 678 mmHg 85%
    09:00 +26°C° 0 mm 1 mps 678 mmHg 80%
    10:00 +28°C° 0 mm 1 mps 678 mmHg 74%
    11:00 +28°C° 0.5 mm 1 mps 678 mmHg 71%
    12:00 +29°C° 0.5 mm 1 mps 677 mmHg 68%
    13:00 +30°C° 0.5 mm 1 mps 677 mmHg 65%
    14:00 +29°C° 1.3 mm 1 mps 676 mmHg 69%
    15:00 +29°C° 1.3 mm 1 mps 676 mmHg 73%
    16:00 +28°C° 1.3 mm 1 mps 675 mmHg 76%
    17:00 +27°C° 1.2 mm 1 mps 676 mmHg 81%
    18:00 +25°C° 1.2 mm 1 mps 676 mmHg 86%
    19:00 +23°C° 1.2 mm 1 mps 676 mmHg 90%
    20:00 +23°C° 0.5 mm 1 mps 676 mmHg 91%
    21:00 +22°C° 0.5 mm 1 mps 677 mmHg 91%
    22:00 +22°C° 0.5 mm 1 mps 677 mmHg 92%
    23:00 +22°C° 0.2 mm 1 mps 677 mmHg 92%

    27 November, Wednesday

    Time Temperature Precipitation Wind Pressure Humidity
    00:00 +20°C° 0.2 mm 0 mps 677 mmHg 92%
    01:00 +19°C° 0.2 mm 0 mps 676 mmHg 93%
    02:00 +19°C° 0 mm 0 mps 676 mmHg 92%
    03:00 +19°C° 0 mm 0 mps 676 mmHg 92%
    04:00 +21°C° 0 mm 1 mps 676 mmHg 92%
    05:00 +19°C° 0 mm 0 mps 676 mmHg 91%
    06:00 +20°C° 0 mm 0 mps 677 mmHg 89%
    07:00 +20°C° 0 mm 0 mps 677 mmHg 88%
    08:00 +22°C° 0 mm 0 mps 678 mmHg 82%
    09:00 +26°C° 0 mm 1 mps 678 mmHg 76%
    10:00 +28°C° 0 mm 1 mps 678 mmHg 70%
    11:00 +29°C° 0.1 mm 1 mps 678 mmHg 65%
    12:00 +30°C° 0.1 mm 1 mps 677 mmHg 60%
    13:00 +32°C° 0.1 mm 1 mps 677 mmHg 56%
    14:00 +31°C° 0.7 mm 1 mps 677 mmHg 61%
    15:00 +30°C° 0.7 mm 1 mps 676 mmHg 66%
    16:00 +29°C° 0.7 mm 2 mps 676 mmHg 71%
    17:00 +27°C° 1.4 mm 1 mps 676 mmHg 77%
    18:00 +25°C° 1.4 mm 1 mps 676 mmHg 84%
    19:00 +23°C° 1.4 mm 1 mps 677 mmHg 90%
    20:00 +23°C° 0.6 mm 1 mps 677 mmHg 91%
    21:00 +23°C° 0.6 mm 1 mps 677 mmHg 91%
    22:00 +22°C° 0.6 mm 1 mps 678 mmHg 91%
    23:00 +22°C° 0.4 mm 1 mps 677 mmHg 91%

    28 November, Thursday

    Time Temperature Precipitation Wind Pressure Humidity
    00:00 +22°C° 0.4 mm 1 mps 677 mmHg 91%
    01:00 +19°C° 0.4 mm 0 mps 677 mmHg 92%
    02:00 +19°C° 0.2 mm 0 mps 676 mmHg 91%
    03:00 +19°C° 0.2 mm 0 mps 676 mmHg 91%
    04:00 +19°C° 0.2 mm 0 mps 676 mmHg 91%
    05:00 +20°C° 0 mm 0 mps 676 mmHg 90%
    06:00 +20°C° 0 mm 0 mps 677 mmHg 89%
    07:00 +20°C° 0 mm 0 mps 677 mmHg 88%
    08:00 +22°C° 0 mm 0 mps 678 mmHg 83%
    09:00 +26°C° 0 mm 1 mps 678 mmHg 78%
    10:00 +27°C° 0 mm 1 mps 678 mmHg 73%
    11:00 +28°C° 0.2 mm 1 mps 678 mmHg 69%
    12:00 +29°C° 0.2 mm 1 mps 677 mmHg 65%
    13:00 +30°C° 0.2 mm 1 mps 677 mmHg 61%
    14:00 +30°C° 0.6 mm 1 mps 676 mmHg 65%
    15:00 +29°C° 0.6 mm 1 mps 676 mmHg 69%
    16:00 +29°C° 0.6 mm 1 mps 676 mmHg 72%
    17:00 +27°C° 1.5 mm 1 mps 676 mmHg 78%
    18:00 +25°C° 1.5 mm 1 mps 676 mmHg 85%
    19:00 +23°C° 1.5 mm 1 mps 676 mmHg 91%
    20:00 +23°C° 0.6 mm 1 mps 677 mmHg 91%
    21:00 +22°C° 0.6 mm 1 mps 677 mmHg 90%
    22:00 +22°C° 0.6 mm 1 mps 677 mmHg 90%
    23:00 +21°C° 0.1 mm 1 mps 677 mmHg 90%
    Show more